SL-3 R/B, 12457

Orbit data source: Space-Track

SL-3 R/B, 12457 is space debris in LEO originally from a launch on Thu, 14 May 1981 UTC launched from the Plesetsk Missile And Space Complex (PKMTR). Debris objects in space refer to the collection of defunct objects orbiting the Earth. Examples of debris include non-operational satellites, rocket bodies, and fragments generated from explosions, collisions, or faulty payload assembly.

Loading next visibility...
SL-3 R/B details
Identifier
12457, 1981-043B
Orbit
LEO
Last TLE update9 hours ago
Origin
Flag of CISRVSN (CIS)
ManufacturerProgress
MissionSpacecraft
Bus & MotorBLOK-E, Unknown motor
Mass1,440 kg wet, 1,440 kg dry
Launch date (UTC)
1981-05-14 (44 years ago)
Launch vehicleUnknown
Launch site
Plesetsk Missile And Space Complex (PKMTR)
Object type
Payload
Rocket body
Debris
Shape & HBRCyl, 3.8 m
Radar Cross Section10.414 m², Large (>1 m²)

Expand to show TLE details & history

TLE from 9 hours ago
0 SL-3 R/B
1 12457U 81043B   24361.19680242  .00000399  00000-0  22551-3 0  9992
2 12457  81.2729 343.7916 0064941 345.0673  14.8576 14.07547513239120
Epoch: 2024-12-26T04:43Z
Definitive object data (Epoch: 2024-12-26T04:43:23.729Z)
Latitude-0.00005°
Longitude177.76306°
Altitude825.202 km
Speed7.464 km/s
True Right ascension22h 55m 09s
True Declination0° 00' 00"
Sunlit
Object was in daylight at TLE epoch
Visualization TLE readout
Latitude34.7754°
Longitude-8.69463°
Altitude916.79 km
Speed7.374 km/s
Apparent Right ascension06h 52m 19s
Apparent Declination0° 58' 55"
Sunlit
Object is in full shadow
Visualization observer readout
Local Sidereal Time13:18:06
Azimuth274.898° WNW
Elevation-4.305°
Doppler factor1
Orbital elements
Apogee altitude911.99 km
Perigee altitude817.915 km
Semi-major axis7,243.089 km
Eccentricity0.0064941
Inclination81.2729°
RAAN343.7916°
Arg. of periapsis345.0673°
True anomaly15.04993°
Mean anomaly14.8576°
Eccentric anomaly14.95361°
Mean motion3.52093 °/min
BSTAR0.00022551
Orbital period102.25 mins
Loading maneuver chart data...
Loading historical data...
Loading historical data...
Loading historical data...
Loading historical data...
Loading historical data...
Loading historical data...
Loading historical data...

SL-3 R/B Visibility forecast

Observer location: undefined°, undefined

Span
Click to sort rows by Start time (UTC) header in descending order
Start Az.
Max El. time (UTC)
Max El. Az.
Max El.
End time (UTC)
End Az.
10 mins2024-12-26 23:35:20.407Z174.993° S2024-12-26 23:40:20.407Z112.077° ESE41.497°2024-12-26 23:45:20.407Z17.353° NNE
5 mins2024-12-27 01:22:20.407Z268.191° W2024-12-27 01:24:20.407Z292.55° NW15.731°2024-12-27 01:27:20.407Z327.238° NNW
10 mins2024-12-27 10:18:20.407Z6.793° NNE2024-12-27 10:22:20.407Z61.123° ENE36.177°2024-12-27 10:28:20.407Z149.765° SSE
7 mins2024-12-27 12:02:20.407Z314.278° NW2024-12-27 12:05:20.407Z278.534° WNW21.072°2024-12-27 12:09:20.407Z229.669° WSW
|